TimePDT,TemperatureF,Dew PointF,Humidity,Sea Level PressureIn,VisibilityMPH,Wind Direction,Wind SpeedMPH,Gust SpeedMPH,PrecipitationIn,Events,Conditions,WindDirDegrees,DateUTC
12:53 AM,62.1,44.1,52,29.99,10.0,NW,5.8,-,N/A,,Clear,310,2012-08-16 07:53:00
1:53 AM,59.0,45.0,60,30.00,10.0,NW,3.5,-,N/A,,Clear,310,2012-08-16 08:53:00
2:53 AM,57.9,45.0,62,30.01,10.0,WNW,3.5,-,N/A,,Clear,290,2012-08-16 09:53:00
3:53 AM,55.0,44.1,67,30.01,10.0,WNW,4.6,-,N/A,,Clear,290,2012-08-16 10:53:00
4:53 AM,55.0,43.0,64,30.01,10.0,WNW,3.5,-,N/A,,Clear,300,2012-08-16 11:53:00
5:53 AM,55.9,43.0,62,30.03,10.0,Calm,Calm,-,N/A,,Clear,0,2012-08-16 12:53:00
6:53 AM,59.0,45.0,60,30.04,10.0,NW,4.6,-,N/A,,Clear,320,2012-08-16 13:53:00
7:53 AM,66.0,44.1,45,30.04,10.0,North,8.1,-,N/A,,Clear,10,2012-08-16 14:53:00
8:53 AM,71.1,44.1,38,30.04,10.0,North,8.1,-,N/A,,Clear,360,2012-08-16 15:53:00
9:53 AM,75.0,44.1,33,30.02,10.0,North,10.4,-,N/A,,Clear,360,2012-08-16 16:53:00
10:53 AM,80.1,44.1,28,30.01,10.0,North,13.8,-,N/A,,Clear,360,2012-08-16 17:53:00
11:53 AM,86.0,42.1,21,29.99,10.0,North,4.6,-,N/A,,Clear,360,2012-08-16 18:53:00
12:53 PM,84.9,42.1,22,29.98,10.0,Calm,Calm,-,N/A,,Clear,0,2012-08-16 19:53:00
1:53 PM,88.0,43.0,21,29.96,10.0,Calm,Calm,-,N/A,,Clear,0,2012-08-16 20:53:00
2:53 PM,91.0,39.0,16,29.94,10.0,Variable,3.5,-,N/A,,Clear,0,2012-08-16 21:53:00
3:53 PM,91.0,41.0,17,29.92,10.0,South,4.6,-,N/A,,Clear,190,2012-08-16 22:53:00
4:53 PM,93.0,39.0,15,29.90,10.0,Calm,Calm,-,N/A,,Clear,0,2012-08-16 23:53:00
5:53 PM,91.0,42.1,18,29.89,10.0,SSW,5.8,-,N/A,,Clear,210,2012-08-17 00:53:00
6:53 PM,90.0,43.0,19,29.88,10.0,SSW,3.5,-,N/A,,Clear,210,2012-08-17 01:53:00
7:53 PM,82.0,48.0,30,29.88,10.0,Calm,Calm,-,N/A,,Clear,0,2012-08-17 02:53:00
8:53 PM,73.9,46.0,37,29.91,10.0,Calm,Calm,-,N/A,,Clear,0,2012-08-17 03:53:00
9:53 PM,75.0,45.0,34,29.92,10.0,WNW,11.5,-,N/A,,Clear,300,2012-08-17 04:53:00
10:53 PM,73.9,44.1,34,29.92,10.0,WNW,8.1,-,N/A,,Clear,300,2012-08-17 05:53:00
11:53 PM,69.1,44.1,40,29.94,10.0,WNW,3.5,-,N/A,,Clear,290,2012-08-17 06:53:00